| time (UTC) | temp C | wind direction | speed KPH | gust KPH | rain 1hr cm | rain 24hr cm | rain mn cm | humidity % | barometer mb |
| 20260906223530 | 26 | 22 | 9.7 | 25.7 | 0.00 | 0.00 | 0.00 | 60 | 1004.3 |
| 20260906223040 | 26 | 24 | 14.5 | 29.0 | 0.00 | 0.00 | 0.00 | 59 | 1004.3 |
| 20260906222528 | 27 | 50 | 17.7 | 29.0 | 0.00 | 0.00 | 0.00 | 60 | 1004.4 |
| 20260906222027 | 27 | 31 | 12.9 | 27.4 | 0.00 | 0.00 | 0.00 | 58 | 1004.7 |
| 20260906221526 | 27 | 91 | 12.9 | 25.7 | 0.00 | 0.00 | 0.00 | 60 | 1004.8 |
| 20260906221024 | 26 | 91 | 8.0 | 25.7 | 0.00 | 0.00 | 0.00 | 60 | 1004.7 |
| 20260906220524 | 26 | 30 | 14.5 | 22.5 | 0.00 | 0.00 | 0.00 | 61 | 1004.6 |
| 20260906220023 | 26 | 53 | 14.5 | 22.5 | 0.00 | 0.00 | 0.00 | 60 | 1004.7 |
| 20260906215523 | 26 | 25 | 14.5 | 22.5 | 0.00 | 0.00 | 0.00 | 59 | 1004.7 |
| 20260906215023 | 26 | 33 | 11.3 | 25.7 | 0.00 | 0.00 | 0.00 | 61 | 1004.7 |
| 20260906214523 | 26 | 36 | 17.7 | 25.7 | 0.00 | 0.00 | 0.00 | 61 | 1004.7 |
| 20260906214025 | 26 | 11 | 12.9 | 24.1 | 0.00 | 0.00 | 0.00 | 62 | 1004.7 |
| 20260906213521 | 26 | 53 | 11.3 | 24.1 | 0.00 | 0.00 | 0.00 | 62 | 1004.7 |
| 20260906213021 | 26 | 36 | 11.3 | 22.5 | 0.00 | 0.00 | 0.00 | 62 | 1004.8 |
| 20260906212519 | 26 | 38 | 12.9 | 24.1 | 0.00 | 0.00 | 0.00 | 62 | 1004.9 |
| 20260906212019 | 26 | 39 | 12.9 | 24.1 | 0.00 | 0.00 | 0.00 | 61 | 1004.9 |
| 20260906211533 | 26 | 25 | 11.3 | 20.9 | 0.00 | 0.00 | 0.00 | 62 | 1005.0 |
| 20260906211024 | 26 | 28 | 9.7 | 22.5 | 0.00 | 0.00 | 0.00 | 63 | 1005.1 |
| 20260906210515 | 25 | 50 | 9.7 | 22.5 | 0.00 | 0.00 | 0.00 | 63 | 1005.3 |
| 20260906210014 | 25 | 26 | 4.8 | 19.3 | 0.00 | 0.00 | 0.00 | 64 | 1005.5 |
| 20260906205513 | 25 | 69 | 6.4 | 19.3 | 0.00 | 0.00 | 0.00 | 62 | 1005.6 |
| 20260906205012 | 25 | 82 | 8.0 | 19.3 | 0.00 | 0.00 | 0.00 | 62 | 1005.6 |
| 20260906204523 | 25 | 26 | 8.0 | 19.3 | 0.00 | 0.00 | 0.00 | 63 | 1005.7 |
| 20260906204010 | 25 | 59 | 9.7 | 20.9 | 0.00 | 0.00 | 0.00 | 64 | 1005.8 |
| 20260906203509 | 25 | 43 | 11.3 | 20.9 | 0.00 | 0.00 | 0.00 | 64 | 1005.9 |
| 20260906203009 | 25 | 92 | 11.3 | 17.7 | 0.00 | 0.00 | 0.00 | 64 | 1006.0 |
| 20260906202508 | 25 | 22 | 6.4 | 14.5 | 0.00 | 0.00 | 0.00 | 64 | 1006.1 |
| 20260906202009 | 25 | 317 | 3.2 | 12.9 | 0.00 | 0.00 | 0.00 | 64 | 1006.2 |
| 20260906201506 | 25 | 85 | 3.2 | 14.5 | 0.00 | 0.00 | 0.00 | 65 | 1006.2 |
| 20260906201005 | 25 | 82 | 4.8 | 14.5 | 0.00 | 0.00 | 0.00 | 64 | 1006.3 |
| 20260906200504 | 25 | 63 | 4.8 | 14.5 | 0.00 | 0.00 | 0.00 | 66 | 1006.4 |
| 20260906200005 | 25 | 311 | 3.2 | 14.5 | 0.00 | 0.00 | 0.00 | 64 | 1006.5 |
| 20260906195501 | 25 | 70 | 3.2 | 14.5 | 0.00 | 0.00 | 0.00 | 65 | 1006.6 |
| 20260906195001 | 25 | 86 | 4.8 | 14.5 | 0.00 | 0.00 | 0.00 | 66 | 1006.6 |
| 20260906194618 | 25 | 11 | 6.4 | 14.5 | 0.00 | 0.00 | 0.00 | 65 | 1006.8 |
| 20260906194057 | 25 | 67 | 4.8 | 14.5 | 0.00 | 0.00 | 0.00 | 68 | 1006.8 |
| 20260906193556 | 24 | 314 | 4.8 | 14.5 | 0.00 | 0.00 | 0.00 | 70 | 1006.9 |
| 20260906193108 | 24 | 109 | 3.2 | 8.0 | 0.00 | 0.00 | 0.00 | 70 | 1007.0 |
| 20260906192553 | 23 | 324 | 4.8 | 12.9 | 0.00 | 0.00 | 0.00 | 69 | 1007.2 |
| 20260906192056 | 23 | 32 | 6.4 | 12.9 | 0.00 | 0.00 | 0.00 | 70 | 1007.2 |
| 20260906191558 | 23 | 18 | 6.4 | 12.9 | 0.00 | 0.00 | 0.00 | 73 | 1007.3 |
| 20260906191053 | 23 | 355 | 1.6 | 12.9 | 0.00 | 0.00 | 0.00 | 70 | 1007.4 |
| 20260906190548 | 23 | 82 | 4.8 | 14.5 | 0.00 | 0.00 | 0.00 | 70 | 1007.5 |
| 20260906190048 | 23 | 102 | 4.8 | 14.5 | 0.00 | 0.00 | 0.00 | 71 | 1007.7 |
| 20260906185547 | 23 | 35 | 8.0 | 14.5 | 0.00 | 0.00 | 0.00 | 72 | 1007.8 |
| 20260906185046 | 23 | 24 | 3.2 | 14.5 | 0.00 | 0.00 | 0.00 | 73 | 1007.8 |
| 20260906184547 | 22 | 308 | 3.2 | 12.9 | 0.00 | 0.00 | 0.00 | 73 | 1007.9 |
| 20260906184043 | 22 | 355 | 6.4 | 12.9 | 0.00 | 0.00 | 0.00 | 73 | 1008.1 |
| 20260906183543 | 22 | 54 | 4.8 | 9.7 | 0.00 | 0.00 | 0.00 | 75 | 1008.1 |
| 20260906183042 | 22 | 9 | 6.4 | 9.7 | 0.00 | 0.00 | 0.00 | 73 | 1008.3 |
| 20260906182544 | 22 | 72 | 4.8 | 9.7 | 0.00 | 0.00 | 0.00 | 74 | 1008.5 |
| 20260906182043 | 22 | 339 | 4.8 | 12.9 | 0.00 | 0.00 | 0.00 | 74 | 1008.6 |
| 20260906181602 | 22 | 27 | 4.8 | 11.3 | 0.00 | 0.00 | 0.00 | 76 | 1008.6 |
| 20260906181039 | 21 | 58 | 1.6 | 9.7 | 0.00 | 0.00 | 0.00 | 73 | 1008.8 |
| 20260906180537 | 21 | 76 | 1.6 | 9.7 | 0.00 | 0.00 | 0.00 | 73 | 1009.0 |
| 20260906180037 | 21 | 33 | 3.2 | 14.5 | 0.00 | 0.00 | 0.00 | 74 | 1009.1 |
| 20260906175534 | 21 | 46 | 8.0 | 14.5 | 0.00 | 0.00 | 0.00 | 73 | 1009.2 |
| 20260906175035 | 21 | 12 | 3.2 | 12.9 | 0.00 | 0.00 | 0.00 | 74 | 1009.2 |
| 20260906174538 | 21 | 16 | 4.8 | 12.9 | 0.00 | 0.00 | 0.00 | 74 | 1009.3 |
| 20260906174036 | 21 | 26 | 6.4 | 12.9 | 0.00 | 0.00 | 0.00 | 74 | 1009.5 |
| 20260906173533 | 21 | 60 | 6.4 | 12.9 | 0.00 | 0.00 | 0.00 | 74 | 1009.6 |
| 20260906173031 | 21 | 30 | 4.8 | 16.1 | 0.00 | 0.00 | 0.00 | 74 | 1009.6 |
| 20260906172529 | 21 | 42 | 6.4 | 16.1 | 0.00 | 0.00 | 0.00 | 75 | 1009.4 |
| 20260906172029 | 20 | 23 | 4.8 | 17.7 | 0.00 | 0.00 | 0.00 | 73 | 1009.4 |
| 20260906171528 | 20 | 355 | 6.4 | 17.7 | 0.00 | 0.00 | 0.00 | 74 | 1009.4 |
| 20260906171027 | 20 | 30 | 4.8 | 8.0 | 0.00 | 0.00 | 0.00 | 75 | 1009.5 |
| 20260906170527 | 20 | 32 | 3.2 | 9.7 | 0.00 | 0.00 | 0.00 | 75 | 1009.5 |
| 20260906170027 | 20 | 22 | 6.4 | 11.3 | 0.00 | 0.00 | 0.00 | 74 | 1009.6 |
| 20260906165528 | 20 | 22 | 4.8 | 8.0 | 0.00 | 0.00 | 0.00 | 74 | 1009.7 |
| 20260906165033 | 20 | 9 | 1.6 | 6.4 | 0.00 | 0.00 | 0.00 | 74 | 1009.8 |
| 20260906164537 | 20 | 348 | 0.0 | 4.8 | 0.00 | 0.00 | 0.00 | 74 | 1009.9 |
| 20260906164027 | 20 | 355 | 3.2 | 4.8 | 0.00 | 0.00 | 0.00 | 73 | 1009.8 |
| 20260906163525 | 20 | 323 | 3.2 | 8.0 | 0.00 | 0.00 | 0.00 | 74 | 1010.0 |
| 20260906163025 | 20 | 19 | 3.2 | 8.0 | 0.00 | 0.00 | 0.00 | 73 | 1009.9 |
| 20260906162528 | 20 | 346 | 3.2 | 8.0 | 0.00 | 0.00 | 0.00 | 74 | 1010.0 |
| 20260906162023 | 20 | 326 | 1.6 | 8.0 | 0.00 | 0.00 | 0.00 | 74 | 1010.0 |
| 20260906161523 | 20 | 22 | 1.6 | 8.0 | 0.00 | 0.00 | 0.00 | 73 | 1010.0 |
| 20260906161023 | 20 | 360 | 1.6 | 8.0 | 0.00 | 0.00 | 0.00 | 75 | 1010.1 |
| 20260906160523 | 20 | 360 | 4.8 | 8.0 | 0.00 | 0.00 | 0.00 | 74 | 1010.0 |
| 20260906160022 | 20 | 43 | 3.2 | 4.8 | 0.00 | 0.00 | 0.00 | 72 | 1009.9 |
| 20260906155522 | 20 | 342 | 1.6 | 4.8 | 0.00 | 0.00 | 0.00 | 72 | 1010.0 |
| 20260906155022 | 19 | 292 | 0.0 | 3.2 | 0.00 | 0.00 | 0.00 | 73 | 1010.0 |
| 20260906154535 | 19 | 249 | 1.6 | 3.2 | 0.00 | 0.00 | 0.00 | 71 | 1010.0 |
| 20260906154023 | 19 | 360 | 1.6 | 3.2 | 0.00 | 0.00 | 0.00 | 71 | 1009.9 |
| 20260906153520 | 19 | 360 | 1.6 | 4.8 | 0.00 | 0.00 | 0.00 | 71 | 1009.9 |
| 20260906153022 | 19 | 336 | 0.0 | 4.8 | 0.00 | 0.00 | 0.00 | 72 | 1009.9 |
| 20260906152521 | 18 | 287 | 1.6 | 4.8 | 0.00 | 0.00 | 0.00 | 71 | 1009.9 |
| 20260906152020 | 18 | 296 | 0.0 | 4.8 | 0.00 | 0.00 | 0.00 | 71 | 1010.0 |
| 20260906151518 | 18 | 273 | 0.0 | 3.2 | 0.00 | 0.00 | 0.00 | 71 | 1010.0 |
| 20260906151017 | 18 | 299 | 0.0 | 4.8 | 0.00 | 0.00 | 0.00 | 71 | 1010.2 |
| 20260906150514 | 18 | 260 | 1.6 | 4.8 | 0.00 | 0.00 | 0.00 | 71 | 1010.1 |
| 20260906150012 | 18 | 304 | 0.0 | 3.2 | 0.00 | 0.00 | 0.00 | 75 | 1010.2 |
| 20260906145514 | 17 | 283 | 0.0 | 3.2 | 0.00 | 0.00 | 0.00 | 73 | 1010.2 |
| 20260906145010 | 17 | 238 | 0.0 | 3.2 | 0.00 | 0.00 | 0.00 | 73 | 1010.3 |
| 20260906144509 | 17 | 188 | 0.0 | 3.2 | 0.00 | 0.00 | 0.00 | 74 | 1010.2 |
| 20260906144008 | 16 | 223 | 1.6 | 3.2 | 0.00 | 0.00 | 0.00 | 74 | 1010.2 |
| 20260906143508 | 16 | 204 | 1.6 | 3.2 | 0.00 | 0.00 | 0.00 | 75 | 1010.3 |
| 20260906143008 | 16 | 236 | 1.6 | 3.2 | 0.00 | 0.00 | 0.00 | 74 | 1010.3 |
| 20260906142507 | 16 | 287 | 0.0 | 3.2 | 0.00 | 0.00 | 0.00 | 76 | 1010.3 |
| 20260906142007 | 16 | 250 | 0.0 | 3.2 | 0.00 | 0.00 | 0.00 | 77 | 1010.2 |
| 20260906141506 | 15 | 273 | 1.6 | 3.2 | 0.00 | 0.00 | 0.00 | 78 | 1010.2 |
| 20260906141006 | 15 | 308 | 0.0 | 8.0 | 0.00 | 0.00 | 0.00 | 78 | 1010.2 |
| 20260906140506 | 15 | 289 | 1.6 | 8.0 | 0.00 | 0.00 | 0.00 | 78 | 1010.1 |
| 20260906140004 | 15 | 293 | 1.6 | 9.7 | 0.00 | 0.00 | 0.00 | 78 | 1010.0 |
| 20260906135506 | 15 | 200 | 4.8 | 9.7 | 0.00 | 0.00 | 0.00 | 79 | 1010.4 |
| 20260906135004 | 15 | 210 | 3.2 | 9.7 | 0.00 | 0.00 | 0.00 | 79 | 1010.2 |
| 20260906134504 | 15 | 250 | 0.0 | 9.7 | 0.00 | 0.00 | 0.00 | 79 | 1010.1 |
| 20260906134008 | 15 | 233 | 3.2 | 8.0 | 0.00 | 0.00 | 0.00 | 80 | 1009.9 |
| 20260906133503 | 15 | 360 | 3.2 | 6.4 | 0.00 | 0.00 | 0.00 | 80 | 1009.4 |
| 20260906133004 | 15 | 348 | 3.2 | 4.8 | 0.00 | 0.00 | 0.00 | 80 | 1009.5 |
| 20260906132503 | 14 | 232 | 1.6 | 9.7 | 0.00 | 0.00 | 0.00 | 80 | 1009.9 |
| 20260906132004 | 14 | 230 | 4.8 | 9.7 | 0.00 | 0.00 | 0.00 | 81 | 1010.2 |
| 20260906131506 | 13 | 219 | 3.2 | 6.4 | 0.00 | 0.00 | 0.00 | 83 | 1010.2 |
| 20260906131003 | 13 | 209 | 1.6 | 6.4 | 0.00 | 0.00 | 0.00 | 84 | 1010.2 |
| 20260906130559 | 13 | 236 | 3.2 | 6.4 | 0.00 | 0.00 | 0.00 | 85 | 1010.2 |
| 20260906130106 | 13 | 274 | 0.0 | 9.7 | 0.00 | 0.00 | 0.00 | 85 | 1009.9 |
| 20260906125559 | 13 | 194 | 6.4 | 9.7 | 0.00 | 0.00 | 0.00 | 86 | 1010.1 |
| 20260906125059 | 13 | 21 | 3.2 | 4.8 | 0.00 | 0.00 | 0.00 | 86 | 1009.2 |
| 20260906124556 | 13 | 305 | 0.0 | 3.2 | 0.00 | 0.00 | 0.00 | 86 | 1009.8 |
| 20260906124056 | 13 | 257 | 0.0 | 3.2 | 0.00 | 0.00 | 0.00 | 86 | 1009.9 |
| 20260906123556 | 13 | 257 | 0.0 | 3.2 | 0.00 | 0.00 | 0.00 | 86 | 1009.8 |
| 20260906123056 | 13 | 257 | 0.0 | 3.2 | 0.00 | 0.00 | 0.00 | 86 | 1009.9 |
| 20260906122555 | 13 | 257 | 0.0 | 3.2 | 0.00 | 0.00 | 0.00 | 85 | 1009.9 |
| 20260906122056 | 13 | 257 | 0.0 | 1.6 | 0.00 | 0.00 | 0.00 | 85 | 1009.9 |
| 20260906121554 | 13 | 286 | 0.0 | 1.6 | 0.00 | 0.00 | 0.00 | 85 | 1009.8 |
| 20260906121054 | 13 | 286 | 0.0 | 3.2 | 0.00 | 0.00 | 0.00 | 85 | 1009.9 |
| 20260906120553 | 13 | 286 | 0.0 | 3.2 | 0.00 | 0.00 | 0.00 | 85 | 1009.8 |
| 20260906120052 | 13 | 286 | 0.0 | 0.0 | 0.00 | 0.00 | 0.00 | 84 | 1009.8 |
| 20260906115552 | 13 | 286 | 0.0 | 0.0 | 0.00 | 0.00 | 0.00 | 84 | 1010.0 |
| 20260906115051 | 13 | 286 | 0.0 | 3.2 | 0.00 | 0.00 | 0.00 | 84 | 1010.0 |
| 20260906114558 | 13 | 286 | 0.0 | 3.2 | 0.00 | 0.00 | 0.00 | 84 | 1009.9 |
| 20260906114052 | 13 | 286 | 0.0 | 3.2 | 0.00 | 0.00 | 0.00 | 83 | 1009.9 |
| 20260906113551 | 13 | 286 | 0.0 | 3.2 | 0.00 | 0.00 | 0.00 | 83 | 1010.0 |
| 20260906113052 | 13 | 286 | 0.0 | 3.2 | 0.00 | 0.00 | 0.00 | 83 | 1009.9 |
| 20260906112551 | 13 | 294 | 0.0 | 3.2 | 0.00 | 0.00 | 0.00 | 83 | 1009.8 |
| 20260906112051 | 13 | 288 | 0.0 | 3.2 | 0.00 | 0.00 | 0.00 | 83 | 1009.8 |
| 20260906111551 | 13 | 11 | 0.0 | 3.2 | 0.00 | 0.00 | 0.00 | 82 | 1009.8 |
| 20260906111050 | 14 | 23 | 0.0 | 3.2 | 0.00 | 0.00 | 0.00 | 82 | 1009.7 |
| 20260906110549 | 14 | 23 | 0.0 | 3.2 | 0.00 | 0.00 | 0.00 | 82 | 1009.6 |
| 20260906110050 | 14 | 24 | 1.6 | 3.2 | 0.00 | 0.00 | 0.00 | 82 | 1009.9 |
| 20260906105549 | 14 | 24 | 0.0 | 3.2 | 0.00 | 0.00 | 0.00 | 82 | 1009.7 |
| 20260906105049 | 14 | 24 | 1.6 | 4.8 | 0.00 | 0.00 | 0.00 | 82 | 1009.4 |
| 20260906104557 | 14 | 28 | 0.0 | 9.7 | 0.00 | 0.00 | 0.00 | 82 | 1009.7 |
| 20260906104054 | 14 | 33 | 4.8 | 9.7 | 0.00 | 0.00 | 0.00 | 81 | 1009.7 |
| 20260906103549 | 14 | 26 | 0.0 | 6.4 | 0.00 | 0.00 | 0.00 | 81 | 1009.8 |
| 20260906103049 | 14 | 186 | 0.0 | 3.2 | 0.00 | 0.00 | 0.00 | 82 | 1010.1 |
| 20260906102549 | 13 | 194 | 0.0 | 8.0 | 0.00 | 0.00 | 0.00 | 82 | 1010.4 |
| 20260906102048 | 13 | 205 | 6.4 | 8.0 | 0.00 | 0.00 | 0.00 | 83 | 1010.8 |
| 20260906101547 | 13 | 198 | 0.0 | 0.0 | 0.00 | 0.00 | 0.00 | 84 | 1010.5 |
| 20260906101046 | 13 | 217 | 0.0 | 1.6 | 0.00 | 0.00 | 0.00 | 84 | 1010.4 |
| 20260906100548 | 13 | 217 | 0.0 | 3.2 | 0.00 | 0.00 | 0.00 | 84 | 1010.4 |
| 20260906100044 | 13 | 217 | 0.0 | 3.2 | 0.00 | 0.00 | 0.00 | 84 | 1010.2 |
| 20260906095548 | 13 | 217 | 0.0 | 3.2 | 0.00 | 0.00 | 0.00 | 84 | 1010.1 |
| 20260906095044 | 13 | 216 | 0.0 | 3.2 | 0.00 | 0.00 | 0.00 | 84 | 1009.9 |
| 20260906094559 | 13 | 216 | 0.0 | 3.2 | 0.00 | 0.00 | 0.00 | 84 | 1009.8 |
| 20260906094043 | 13 | 308 | 0.0 | 3.2 | 0.00 | 0.00 | 0.00 | 84 | 1009.7 |
| 20260906093543 | 13 | 277 | 0.0 | 0.0 | 0.00 | 0.00 | 0.00 | 84 | 1009.7 |
| 20260906093102 | 13 | 277 | 0.0 | 0.0 | 0.00 | 0.00 | 0.00 | 84 | 1009.7 |
| 20260906092542 | 13 | 274 | 0.0 | 0.0 | 0.00 | 0.00 | 0.00 | 84 | 1009.8 |
| 20260906092042 | 13 | 274 | 0.0 | 0.0 | 0.00 | 0.00 | 0.00 | 84 | 1009.7 |
| 20260906091541 | 13 | 274 | 0.0 | 0.0 | 0.00 | 0.00 | 0.00 | 84 | 1009.8 |
| 20260906091041 | 13 | 274 | 0.0 | 0.0 | 0.00 | 0.00 | 0.00 | 84 | 1009.7 |
| 20260906090540 | 13 | 274 | 0.0 | 0.0 | 0.00 | 0.00 | 0.00 | 84 | 1009.7 |
| 20260906090040 | 13 | 274 | 0.0 | 0.0 | 0.00 | 0.00 | 0.00 | 84 | 1009.6 |
| 20260906085539 | 13 | 274 | 0.0 | 3.2 | 0.00 | 0.00 | 0.00 | 84 | 1009.4 |
| 20260906085040 | 13 | 259 | 0.0 | 3.2 | 0.00 | 0.00 | 0.00 | 84 | 1009.7 |
| 20260906084539 | 14 | 299 | 0.0 | 3.2 | 0.00 | 0.00 | 0.00 | 84 | 1009.5 |
| 20260906084040 | 14 | 215 | 0.0 | 1.6 | 0.00 | 0.00 | 0.00 | 83 | 1009.5 |
| 20260906083538 | 14 | 193 | 0.0 | 0.0 | 0.00 | 0.00 | 0.00 | 83 | 1009.6 |
| 20260906083045 | 14 | 193 | 0.0 | 0.0 | 0.00 | 0.00 | 0.00 | 83 | 1009.6 |
| 20260906082537 | 14 | 193 | 0.0 | 1.6 | 0.00 | 0.00 | 0.00 | 83 | 1009.6 |
| 20260906082037 | 14 | 193 | 0.0 | 4.8 | 0.00 | 0.00 | 0.00 | 83 | 1009.6 |
| 20260906081539 | 14 | 193 | 1.6 | 4.8 | 0.00 | 0.00 | 0.00 | 83 | 1009.8 |
| 20260906081036 | 14 | 185 | 1.6 | 3.2 | 0.00 | 0.00 | 0.00 | 83 | 1009.7 |
| 20260906080536 | 14 | 49 | 1.6 | 3.2 | 0.00 | 0.00 | 0.00 | 83 | 1009.6 |
| 20260906080040 | 14 | 49 | 0.0 | 3.2 | 0.00 | 0.00 | 0.00 | 82 | 1009.4 |
| 20260906075534 | 14 | 49 | 0.0 | 3.2 | 0.00 | 0.00 | 0.00 | 82 | 1009.4 |
| 20260906075034 | 14 | 49 | 0.0 | 3.2 | 0.00 | 0.00 | 0.00 | 81 | 1009.4 |
| 20260906074534 | 14 | 49 | 0.0 | 3.2 | 0.00 | 0.00 | 0.00 | 81 | 1009.5 |
| 20260906074032 | 15 | 49 | 0.0 | 3.2 | 0.00 | 0.00 | 0.00 | 81 | 1009.7 |
| 20260906073536 | 15 | 49 | 0.0 | 3.2 | 0.00 | 0.00 | 0.00 | 80 | 1009.7 |
| 20260906073030 | 15 | 49 | 0.0 | 3.2 | 0.00 | 0.00 | 0.00 | 80 | 1009.8 |
| 20260906072530 | 15 | 49 | 0.0 | 1.6 | 0.00 | 0.00 | 0.00 | 79 | 1009.8 |
| 20260906072029 | 15 | 49 | 0.0 | 3.2 | 0.00 | 0.00 | 0.00 | 78 | 1009.9 |
| 20260906071528 | 15 | 49 | 0.0 | 3.2 | 0.00 | 0.00 | 0.00 | 77 | 1009.9 |
| 20260906071027 | 15 | 49 | 0.0 | 3.2 | 0.00 | 0.00 | 0.00 | 78 | 1009.9 |
| 20260906070525 | 15 | 49 | 0.0 | 0.0 | 0.00 | 0.00 | 0.00 | 78 | 1009.9 |
| 20260906070025 | 15 | 49 | 0.0 | 3.2 | 0.00 | 0.00 | 0.00 | 78 | 1010.0 |
| 20260906065524 | 15 | 49 | 0.0 | 3.2 | 0.00 | 0.00 | 0.00 | 77 | 1009.9 |
| 20260906065024 | 15 | 57 | 0.0 | 3.2 | 0.00 | 0.00 | 0.00 | 75 | 1009.9 |
| 20260906064522 | 16 | 59 | 0.0 | 3.2 | 0.00 | 0.00 | 0.00 | 74 | 1010.1 |
| 20260906064021 | 16 | 40 | 0.0 | 3.2 | 0.00 | 0.00 | 0.00 | 73 | 1010.1 |
| 20260906063520 | 16 | 40 | 0.0 | 3.2 | 0.00 | 0.00 | 0.00 | 74 | 1010.1 |
| 20260906063020 | 16 | 40 | 1.6 | 3.2 | 0.00 | 0.00 | 0.00 | 72 | 1010.1 |
| 20260906062523 | 16 | 71 | 0.0 | 3.2 | 0.00 | 0.00 | 0.00 | 72 | 1010.1 |
| 20260906062018 | 16 | 41 | 0.0 | 3.2 | 0.00 | 0.00 | 0.00 | 71 | 1010.0 |
| 20260906061518 | 16 | 60 | 0.0 | 3.2 | 0.00 | 0.00 | 0.00 | 71 | 1010.1 |
| 20260906061015 | 16 | 47 | 0.0 | 4.8 | 0.00 | 0.00 | 0.00 | 69 | 1010.1 |
| 20260906060519 | 17 | 36 | 3.2 | 4.8 | 0.00 | 0.00 | 0.00 | 68 | 1010.1 |
| 20260906060014 | 17 | 26 | 0.0 | 3.2 | 0.00 | 0.00 | 0.00 | 67 | 1010.2 |
| 20260906055514 | 17 | 30 | 0.0 | 4.8 | 0.00 | 0.00 | 0.00 | 67 | 1010.3 |
| 20260906055013 | 17 | 41 | 3.2 | 9.7 | 0.00 | 0.00 | 0.00 | 68 | 1010.1 |
| 20260906054512 | 17 | 240 | 0.0 | 9.7 | 0.00 | 0.00 | 0.00 | 68 | 1010.5 |
| 20260906054016 | 17 | 35 | 3.2 | 6.4 | 0.00 | 0.00 | 0.00 | 68 | 1010.1 |
| 20260906053612 | 17 | 348 | 0.0 | 6.4 | 0.00 | 0.00 | 0.00 | 65 | 1010.4 |
| 20260906053012 | 17 | 294 | 4.8 | 6.4 | 0.00 | 0.00 | 0.00 | 64 | 1010.3 |
| 20260906052512 | 18 | 57 | 1.6 | 6.4 | 0.00 | 0.00 | 0.00 | 62 | 1010.0 |
| 20260906052012 | 17 | 227 | 3.2 | 8.0 | 0.00 | 0.00 | 0.00 | 58 | 1010.5 |
| 20260906051512 | 17 | 21 | 6.4 | 8.0 | 0.00 | 0.00 | 0.00 | 59 | 1009.8 |
| 20260906051012 | 17 | 76 | 0.0 | 3.2 | 0.00 | 0.00 | 0.00 | 59 | 1010.3 |
| 20260906050511 | 17 | 105 | 0.0 | 3.2 | 0.00 | 0.00 | 0.00 | 58 | 1010.3 |
| 20260906050011 | 17 | 105 | 0.0 | 3.2 | 0.00 | 0.00 | 0.00 | 59 | 1010.2 |
| 20260906045513 | 17 | 105 | 0.0 | 3.2 | 0.00 | 0.00 | 0.00 | 59 | 1010.1 |
| 20260906045010 | 17 | 91 | 1.6 | 3.2 | 0.00 | 0.00 | 0.00 | 58 | 1009.9 |
| 20260906044510 | 17 | 85 | 0.0 | 6.4 | 0.00 | 0.00 | 0.00 | 57 | 1010.0 |
| 20260906044009 | 17 | 54 | 3.2 | 6.4 | 0.00 | 0.00 | 0.00 | 59 | 1009.7 |
| 20260906043510 | 17 | 59 | 1.6 | 3.2 | 0.00 | 0.00 | 0.00 | 59 | 1009.8 |
| 20260906043009 | 17 | 87 | 0.0 | 3.2 | 0.00 | 0.00 | 0.00 | 57 | 1009.9 |
| 20260906042510 | 18 | 63 | 0.0 | 3.2 | 0.00 | 0.00 | 0.00 | 57 | 1010.0 |
| 20260906042009 | 18 | 14 | 0.0 | 3.2 | 0.00 | 0.00 | 0.00 | 57 | 1009.9 |
| 20260906041509 | 18 | 13 | 0.0 | 3.2 | 0.00 | 0.00 | 0.00 | 57 | 1010.0 |
| 20260906041008 | 18 | 13 | 0.0 | 3.2 | 0.00 | 0.00 | 0.00 | 56 | 1009.9 |
| 20260906040508 | 18 | 343 | 0.0 | 3.2 | 0.00 | 0.00 | 0.00 | 55 | 1009.8 |
| 20260906040017 | 18 | 342 | 0.0 | 3.2 | 0.00 | 0.00 | 0.00 | 55 | 1009.7 |
| 20260906035508 | 18 | 355 | 0.0 | 6.4 | 0.00 | 0.00 | 0.00 | 55 | 1009.4 |
| 20260906035007 | 18 | 335 | 1.6 | 6.4 | 0.00 | 0.00 | 0.00 | 54 | 1009.4 |
| 20260906034509 | 18 | 9 | 1.6 | 4.8 | 0.00 | 0.00 | 0.00 | 55 | 1009.2 |
| 20260906034008 | 19 | 26 | 1.6 | 4.8 | 0.00 | 0.00 | 0.00 | 55 | 1009.4 |
| 20260906033507 | 19 | 49 | 0.0 | 3.2 | 0.00 | 0.00 | 0.00 | 55 | 1009.5 |
| 20260906033007 | 20 | 42 | 0.0 | 3.2 | 0.00 | 0.00 | 0.00 | 54 | 1009.5 |
| 20260906032507 | 20 | 40 | 0.0 | 4.8 | 0.00 | 0.00 | 0.00 | 54 | 1009.6 |
| 20260906032007 | 20 | 55 | 0.0 | 6.4 | 0.00 | 0.00 | 0.00 | 53 | 1009.5 |
| 20260906031508 | 20 | 28 | 4.8 | 6.4 | 0.00 | 0.00 | 0.00 | 52 | 1009.4 |
| 20260906031007 | 20 | 26 | 3.2 | 9.7 | 0.00 | 0.00 | 0.00 | 52 | 1009.4 |
| 20260906030507 | 20 | 28 | 3.2 | 9.7 | 0.00 | 0.00 | 0.00 | 51 | 1009.4 |
| 20260906030009 | 20 | 60 | 3.2 | 8.0 | 0.00 | 0.00 | 0.00 | 51 | 1009.3 |
| 20260906025506 | 20 | 48 | 4.8 | 8.0 | 0.00 | 0.00 | 0.00 | 52 | 1009.2 |
| 20260906025006 | 21 | 43 | 4.8 | 8.0 | 0.00 | 0.00 | 0.00 | 51 | 1009.1 |
| 20260906024519 | 21 | 26 | 4.8 | 8.0 | 0.00 | 0.00 | 0.00 | 52 | 1009.0 |
| 20260906024006 | 21 | 29 | 4.8 | 8.0 | 0.00 | 0.00 | 0.00 | 51 | 1009.0 |
| 20260906023506 | 21 | 30 | 3.2 | 8.0 | 0.00 | 0.00 | 0.00 | 51 | 1009.0 |
| 20260906023007 | 21 | 24 | 4.8 | 8.0 | 0.00 | 0.00 | 0.00 | 50 | 1009.0 |
| 20260906022505 | 21 | 32 | 4.8 | 8.0 | 0.00 | 0.00 | 0.00 | 50 | 1009.0 |
| 20260906022006 | 21 | 28 | 4.8 | 8.0 | 0.00 | 0.00 | 0.00 | 50 | 1009.0 |
| 20260906021508 | 22 | 34 | 4.8 | 8.0 | 0.00 | 0.00 | 0.00 | 49 | 1009.0 |
| 20260906021005 | 22 | 26 | 3.2 | 8.0 | 0.00 | 0.00 | 0.00 | 49 | 1008.9 |
| 20260906020505 | 22 | 51 | 4.8 | 8.0 | 0.00 | 0.00 | 0.00 | 49 | 1008.8 |
| 20260906020005 | 22 | 34 | 4.8 | 8.0 | 0.00 | 0.00 | 0.00 | 48 | 1008.7 |
| 20260906015504 | 22 | 33 | 3.2 | 8.0 | 0.00 | 0.00 | 0.00 | 48 | 1008.7 |
| 20260906015005 | 22 | 44 | 4.8 | 8.0 | 0.00 | 0.00 | 0.00 | 47 | 1008.6 |
| 20260906014508 | 23 | 47 | 4.8 | 6.4 | 0.00 | 0.00 | 0.00 | 47 | 1008.6 |
| 20260906014003 | 23 | 26 | 3.2 | 6.4 | 0.00 | 0.00 | 0.00 | 47 | 1008.6 |
| 20260906013503 | 23 | 19 | 3.2 | 6.4 | 0.00 | 0.00 | 0.00 | 46 | 1008.6 |
| 20260906013010 | 23 | 28 | 3.2 | 8.0 | 0.00 | 0.00 | 0.00 | 45 | 1008.5 |
| 20260906012502 | 24 | 47 | 4.8 | 8.0 | 0.00 | 0.00 | 0.00 | 44 | 1008.5 |
| 20260906012003 | 24 | 26 | 4.8 | 12.9 | 0.00 | 0.00 | 0.00 | 42 | 1008.6 |
| 20260906011504 | 25 | 23 | 4.8 | 14.5 | 0.00 | 0.00 | 0.00 | 41 | 1008.6 |
| 20260906011002 | 25 | 37 | 6.4 | 14.5 | 0.00 | 0.00 | 0.00 | 41 | 1008.6 |
| 20260906010502 | 25 | 54 | 8.0 | 14.5 | 0.00 | 0.00 | 0.00 | 40 | 1008.6 |
| 20260906010002 | 25 | 36 | 6.4 | 14.5 | 0.00 | 0.00 | 0.00 | 40 | 1008.5 |
| 20260906005501 | 25 | 80 | 6.4 | 14.5 | 0.00 | 0.00 | 0.00 | 40 | 1008.5 |
| 20260906005003 | 25 | 72 | 8.0 | 14.5 | 0.00 | 0.00 | 0.00 | 40 | 1008.5 |
| 20260906004504 | 26 | 26 | 4.8 | 14.5 | 0.00 | 0.00 | 0.00 | 38 | 1008.4 |
| 20260906004002 | 26 | 32 | 8.0 | 17.7 | 0.00 | 0.00 | 0.00 | 38 | 1008.4 |
| 20260906003600 | 26 | 28 | 6.4 | 17.7 | 0.00 | 0.00 | 0.00 | 39 | 1008.4 |
| 20260906003501 | 26 | 49 | 4.8 | 17.7 | 0.00 | 0.00 | 0.00 | 38 | 1008.4 |
| 20260906003001 | 26 | 27 | 6.4 | 19.3 | 0.00 | 0.00 | 0.00 | 38 | 1008.3 |
| 20260906002601 | 26 | 43 | 9.7 | 19.3 | 0.00 | 0.00 | 0.00 | 37 | 1008.3 |
| 20260906002100 | 26 | 42 | 8.0 | 17.7 | 0.00 | 0.00 | 0.00 | 37 | 1008.4 |
| 20260906001601 | 26 | 69 | 6.4 | 14.5 | 0.00 | 0.00 | 0.00 | 36 | 1008.5 |
| 20260906001059 | 26 | 360 | 4.8 | 17.7 | 0.00 | 0.00 | 0.00 | 37 | 1008.4 |
| 20260906000559 | 26 | 94 | 9.7 | 17.7 | 0.00 | 0.00 | 0.00 | 35 | 1008.4 |
| 20260906000100 | 26 | 46 | 6.4 | 17.7 | 0.00 | 0.00 | 0.00 | 35 | 1008.4 |
| 20260905235559 | 26 | 43 | 9.7 | 17.7 | 0.00 | 0.00 | 0.00 | 35 | 1008.4 |
| 20260905235059 | 27 | 68 | 8.0 | 20.9 | 0.00 | 0.00 | 0.00 | 35 | 1008.4 |
| 20260905234610 | 27 | 30 | 11.3 | 22.5 | 0.00 | 0.00 | 0.00 | 34 | 1008.3 |
| 20260905234503 | 27 | 47 | 11.3 | 22.5 | 0.00 | 0.00 | 0.00 | 34 | 1008.4 |
| 20260905234059 | 27 | 26 | 11.3 | 22.5 | 0.00 | 0.00 | 0.00 | 32 | 1008.3 |
| 20260905233559 | 27 | 82 | 8.0 | 20.9 | 0.00 | 0.00 | 0.00 | 36 | 1008.2 |
| 20260905233059 | 27 | 82 | 11.3 | 20.9 | 0.00 | 0.00 | 0.00 | 33 | 1008.2 |
| 20260905232557 | 27 | 39 | 8.0 | 20.9 | 0.00 | 0.00 | 0.00 | 34 | 1008.2 |
| 20260905232058 | 27 | 58 | 11.3 | 22.5 | 0.00 | 0.00 | 0.00 | 33 | 1008.1 |
| 20260905231558 | 27 | 46 | 11.3 | 22.5 | 0.00 | 0.00 | 0.00 | 32 | 1008.1 |
| 20260905231057 | 27 | 71 | 9.7 | 17.7 | 0.00 | 0.00 | 0.00 | 33 | 1008.1 |
| 20260905230557 | 27 | 19 | 4.8 | 17.7 | 0.00 | 0.00 | 0.00 | 33 | 1008.1 |
| 20260905230057 | 27 | 13 | 8.0 | 17.7 | 0.00 | 0.00 | 0.00 | 33 | 1008.1 |
| 20260905225557 | 27 | 51 | 8.0 | 20.9 | 0.00 | 0.00 | 0.00 | 34 | 1008.2 |
| 20260905225100 | 27 | 82 | 6.4 | 20.9 | 0.00 | 0.00 | 0.00 | 35 | 1008.2 |
| 20260905224610 | 27 | 21 | 9.7 | 19.3 | 0.00 | 0.00 | 0.00 | 32 | 1008.1 |
| 20260905224057 | 27 | 23 | 9.7 | 19.3 | 0.00 | 0.00 | 0.00 | 33 | 1008.1 |
| 20260905223556 | 27 | 21 | 11.3 | 19.3 | 0.00 | 0.00 | 0.00 | 34 | 1008.1 |